Dewpoint
52 52 51 51 51 51 50 50 48 49 49 48 47 47 47 48 48 47 47 48 50 52 53 57 55 53 50 43 41 46 53 53 51 49 45 38 34 34 32 29 31 30 30 30 31 32 31
52 52 52 51 51 51 49 50 49 49 49 48 47 47 46 47 47 46 46 48 51 52 52 57 54 53 46 37 42 47 47 47 46 45 41 38 35 34 33 29 29 31 30 30 31 31 31
53 52 51 51 50 50 51 48 49 49 48 47 46 47 47 47 47 45 46 48 50 54 53 57 55 50 43 38 42 45 39 40 40 43 40 39 38 34 35 31 32 31 29 30 30 31 32
54 53 53 52 51 50 50 50 50 49 47 46 45 46 46 47 47 45 45 48 50 54 55 55 55 49 41 44 43 38 38 38 39 40 40 40 40 36 35 34 34 31 32 27 30 33 34
55 56 56 55 53 52 51 51 49 48 47 47 46 46 46 47 47 46 45 48 52 54 55 53 50 46 39 46 41 41 39 38 40 40 42 37 39 37 35 34 29 32 24 27 28 33 33
54 54 55 54 55 56 54 52 50 45 46 47 46 45 46 47 47 46 45 48 52 53 52 49 46 42 39 38 41 40 40 40 38 40 39 39 39 34 32 30 22 23 24 30 29 34 35
55 56 56 55 56 52 49 49 49 47 47 46 46 46 46 46 46 45 45 45 40 44 46 40 40 38 39 42 42 40 40 40 37 36 31 35 30 27 27 30 29 29 28 28 31 33 32
52 51 51 49 48 47 47 48 47 47 46 46 45 45 46 46 45 45 46 40 39 41 37 43 43 40 40 40 37 38 41 37 34 32 34 34 30 30 31 32 32 33 33 30 32 32 35
51 52 50 48 46 47 47 46 47 46 46 46 46 46 46 46 45 41 40 42 46 47 37 40 43 38 39 40 37 37 39 38 35 32 33 31 29 33 33 33 36 32 32 32 30 31 36
50 50 47 45 45 45 45 46 46 46 45 46 46 46 46 45 39 39 41 45 49 49 33 37 40 40 38 39 36 39 39 38 35 30 31 31 31 31 30 32 35 31 32 36 35 34 30
50 45 46 46 46 46 46 45 45 45 45 46 46 46 46 44 40 38 42 46 48 44 21 36 36 40 39 37 38 39 42 39 34 31 35 33 35 35 35 34 36 34 36 35 37 36 32
49 46 45 45 45 45 46 46 46 46 46 46 46 46 45 40 39 43 44 46 44 30 22 34 36 35 35 35 39 39 39 41 41 37 36 36 39 37 36 36 36 36 35 35 36 35 28
48 44 44 44 44 46 46 46 46 46 47 46 45 45 44 42 37 43 43 41 28 24 36 31 35 33 31 33 37 36 36 36 35 31 32 35 35 37 37 35 37 37 35 28 26 27 27
47 44 44 44 46 46 46 46 47 48 47 46 46 45 43 42 44 43 41 34 25 34 33 33 32 33 35 32 35 35 37 35 37 36 32 31 29 37 39 38 36 36 35 29 22 26 28
46 43 44 45 46 46 46 47 47 48 46 44 43 42 42 44 43 43 36 27 28 34 35 31 33 35 34 33 33 35 36 35 38 35 32 33 32 38 39 39 37 35 34 35 32 34 30
46 43 45 45 46 46 47 47 48 48 48 44 40 39 41 44 43 40 31 32 35 37 35 32 27 31 27 30 35 34 35 38 38 37 37 36 32 36 36 39 37 35 35 29 31 24 25
46 44 45 45 46 46 47 48 48 48 48 48 39 34 40 44 42 35 31 33 35 36 36 31 29 28 28 32 36 35 33 33 34 34 35 36 36 31 36 32 30 32 29 28 26 28 25
45 44 45 45 45 46 47 48 47 48 48 44 37 28 40 47 32 36 32 34 37 36 37 35 32 28 26 27 29 31 32 34 36 34 32 32 33 30 29 32 32 31 29 26 24 22 26
44 43 45 45 46 48 47 48 48 47 48 44 37 37 44 44 32 29 34 33 35 35 36 35 30 29 26 25 28 31 33 37 37 34 30 30 29 24 25 28 29 29 28 27 27 28 23
44 43 45 45 46 47 47 48 48 48 48 42 35 31 35 41 39 34 30 31 32 36 37 36 33 27 26 30 31 31 32 36 37 34 40 36 29 26 21 25 29 26 27 28 27 24 25
44 42 45 46 46 46 47 48 48 48 49 41 35 34 37 32 34 34 33 33 33 32 36 36 29 31 27 28 28 29 31 32 33 35 33 31 27 25 26 27 28 27 28 28 25 25 23
44 42 45 45 45 46 47 48 49 48 48 40 34 36 36 35 34 33 33 31 32 32 33 33 33 33 32 30 29 29 29 30 30 31 30 32 25 28 24 26 25 24 26 28 29 27 26
43 42 44 45 46 46 47 48 48 48 46 38 42 40 38 33 31 31 32 32 33 35 34 36 35 33 33 34 35 33 31 31 30 29 29 29 28 26 22 25 25 20 23 25 28 29 27
43 41 44 45 46 46 48 48 48 48 47 42 40 42 35 29 30 31 32 32 33 34 35 36 35 34 35 36 35 32 30 30 30 30 30 28 28 27 21 23 12 24 25 26 27 27 30
42 41 44 45 46 47 49 50 49 48 47 43 43 41 39 28 28 31 31 31 32 35 35 36 35 35 37 36 31 27 27 26 28 29 29 29 28 24 21 17 20 23 25 24 24 24 28
41 41 44 45 46 49 51 51 51 49 48 44 44 41 38 33 27 29 30 34 31 33 33 35 37 37 38 36 29 23 22 24 23 24 29 28 28 26 24 19 15 22 25 25 25 22 30
40 42 44 46 47 50 50 51 50 49 48 44 40 39 36 32 30 32 31 32 35 35 32 34 36 35 38 33 27 23 22 27 23 22 24 26 25 23 23 21 23 26 27 27 19 20 31
39 42 44 45 47 49 49 48 48 46 44 41 37 38 37 32 31 32 33 32 33 34 32 34 33 34 34 30 28 25 24 25 23 25 25 24 22 23 23 19 16 27 27 24 25 32 32
38 41 44 45 46 49 46 45 46 46 46 43 36 36 36 35 33 33 33 33 33 33 33 33 34 34 35 30 30 28 25 25 24 20 28 21 26 24 23 23 27 29 28 30 31 32 33
Lifted_Index
12 12 11 10 10 9 9 9 8 8 8 8 8 8 8 8 8 8 8 8 6 4 3 2 3 4 4 4 4 5 4 4 4 5 6 7 7 8 8 9 9 10 10 11 11 11 11
11 11 10 10 9 9 8 8 8 8 8 8 8 8 8 7 7 7 7 7 6 4 3 2 3 4 4 4 4 5 5 5 5 6 6 7 7 8 8 9 9 10 10 11 11 12 12
10 10 9 8 8 7 7 7 7 7 7 7 7 6 6 6 6 6 6 5 4 3 2 2 3 4 4 4 5 5 6 6 6 6 7 7 7 8 8 9 9 10 11 11 11 11 11
8 8 7 6 6 5 5 5 5 6 6 6 6 6 5 5 5 5 5 4 2 1 1 2 3 4 4 4 5 6 6 7 7 7 7 7 7 8 8 8 9 9 9 9 9 8 8
7 6 5 4 3 3 3 4 5 5 5 5 5 5 5 4 4 4 4 3 1 -1 0 2 3 3 3 4 4 5 6 6 7 7 7 7 7 7 7 7 6 7 7 6 5 5 5
6 5 3 2 1 2 2 4 5 5 5 4 4 4 4 3 3 3 3 2 1 -1 0 2 3 3 3 3 4 5 5 6 6 6 7 6 6 6 5 5 4 4 4 4 3 3 3
6 5 3 2 2 2 3 4 5 5 4 3 3 3 3 2 2 2 2 2 1 1 1 2 3 3 3 3 4 5 5 6 6 6 6 6 5 4 4 3 3 3 3 3 3 3 3
8 6 5 4 3 4 4 4 4 3 3 2 2 2 2 1 1 1 2 2 3 2 2 2 2 3 3 4 4 5 5 5 5 5 5 4 4 3 3 3 2 2 3 3 3 3 3
10 9 8 6 5 4 3 2 2 2 2 1 1 0 0 0 1 2 2 3 4 3 2 1 2 3 3 4 4 4 5 4 4 4 4 4 3 3 3 2 2 2 2 2 2 2 2
12 11 10 8 6 4 2 1 1 1 0 -0 -0 -0 -0 0 2 3 3 4 4 3 2 2 2 3 3 4 4 4 4 4 4 4 3 3 3 2 2 2 2 2 2 2 2 2 1
13 13 11 9 6 4 2 1 1 1 0 -0 -0 -0 -0 1 3 4 4 4 4 3 2 2 2 3 3 3 3 3 3 3 3 3 3 3 2 2 2 2 2 2 2 1 1 2 1
14 13 12 10 7 5 3 2 1 1 0 0 0 0 1 3 4 5 5 5 3 2 1 2 3 3 3 3 3 3 3 3 3 3 2 2 2 2 2 2 2 2 2 1 1 1 1
14 14 12 10 9 7 6 4 3 2 2 2 2 2 3 4 5 6 5 4 2 2 2 2 2 3 3 2 2 2 2 2 2 2 2 2 2 2 2 2 2 2 1 1 1 1 1
14 14 13 11 9 8 7 6 5 4 4 4 5 5 5 6 6 6 4 3 2 2 2 2 2 2 2 2 2 2 1 1 2 1 1 1 1 1 2 1 1 1 1 1 0 0 1
14 14 13 12 10 9 8 7 7 6 6 7 7 7 7 7 6 5 4 2 2 2 2 2 2 2 2 2 1 1 1 1 1 1 1 1 1 1 1 1 1 1 1 1 1 0 0
14 14 14 12 11 10 9 8 8 7 7 8 8 8 8 8 7 6 4 3 2 2 2 2 2 2 2 1 1 1 1 1 1 1 1 1 1 1 1 1 1 2 2 2 1 1 0
14 14 14 13 12 11 10 9 8 8 8 8 8 8 8 8 7 5 4 3 3 2 2 2 2 2 2 1 1 1 1 1 1 1 1 1 1 2 2 2 2 2 2 2 2 1 1
14 14 14 13 12 11 10 10 9 9 8 8 8 7 7 7 6 5 4 4 3 3 2 2 2 2 2 1 1 1 1 2 2 1 1 1 1 2 2 2 3 3 3 2 2 1 1
14 14 14 14 13 12 11 10 10 9 9 8 7 7 7 6 5 4 4 4 4 3 3 3 3 2 2 2 2 1 2 2 2 2 2 2 2 2 2 3 4 4 4 3 2 2 1
15 15 14 14 14 13 12 11 10 10 9 8 7 6 6 6 5 4 4 4 3 3 3 3 3 3 2 2 2 2 2 2 2 2 2 2 3 3 3 4 4 4 4 4 3 2 2
16 16 15 14 14 14 13 12 11 10 10 9 8 7 6 5 5 4 4 4 3 3 3 3 3 3 3 2 2 2 2 2 2 3 3 3 3 4 4 4 5 5 4 4 4 3 3
17 17 15 15 14 15 15 14 13 12 11 10 10 9 8 7 5 5 5 4 4 4 3 3 3 3 3 3 3 3 3 3 3 3 3 4 4 4 4 5 5 5 5 5 5 4 4
18 17 16 15 15 15 15 15 15 14 14 13 12 11 10 9 7 6 6 5 5 4 4 3 3 4 4 4 4 3 3 4 4 4 4 4 4 4 4 4 4 5 5 5 5 5 5
18 18 17 16 15 14 14 15 15 15 15 15 14 13 12 11 9 8 7 6 5 5 4 4 4 4 4 4 4 4 4 4 4 4 4 4 4 3 3 3 3 5 6 6 5 5 5
18 18 18 17 15 14 13 14 15 15 16 16 15 14 14 13 12 10 9 8 7 6 5 4 4 4 4 3 3 3 3 3 4 4 4 4 4 3 3 2 3 4 6 6 6 5 6
17 18 18 17 16 14 13 13 14 15 16 16 16 15 15 14 13 12 11 10 9 8 6 6 5 4 4 4 3 3 3 3 3 3 4 4 4 3 2 2 3 4 6 6 6 6 6
17 18 18 17 16 15 14 13 13 14 15 16 16 16 16 15 14 14 13 12 11 10 9 8 7 6 5 5 4 4 4 4 4 4 4 4 4 4 3 2 3 5 7 7 6 7 7
17 18 18 17 16 15 15 14 14 14 15 15 15 16 16 15 15 14 14 13 12 11 10 10 9 8 7 7 6 6 6 6 6 5 5 5 5 5 4 4 5 7 8 8 8 8 8
16 18 18 17 16 15 15 15 15 15 15 15 15 16 16 15 15 15 15 14 13 12 11 11 10 9 8 8 8 8 8 8 7 7 7 6 6 6 6 6 6 8 9 8 8 9 9